IZ4UFQ-10 Weather Reports


Display with metric or nautical units.
time (UTC)temp
F
wind
direction
speed
MPH
gust
MPH
rain 1hr
in
rain 24hr
in
rain mn
in
humidity
%
barometer
mb
20260509182717 70 82 0.0 0.0 0.00 0.00 0.00 59 1013.8
20260509182217 70 107 0.0 0.0 0.00 0.00 0.00 58 1013.7
20260509181716 70 116 0.0 0.0 0.00 0.00 0.00 57 1013.7
20260509181216 71 146 0.0 0.0 0.00 0.00 0.00 57 1013.7
20260509180716 71 122 0.0 0.0 0.00 0.00 0.00 56 1013.7
20260509180216 71 141 0.0 0.0 0.00 0.00 0.00 56 1013.7
20260509175715 71 127 0.0 0.0 0.00 0.00 0.00 55 1013.7
20260509175215 72 96 0.0 0.0 0.00 0.00 0.00 55 1013.6
20260509174715 72 98 0.0 0.0 0.00 0.00 0.00 54 1013.6
20260509174214 72 122 0.0 0.0 0.00 0.00 0.00 54 1013.6
20260509173714 73 116 0.0 0.0 0.00 0.00 0.00 54 1013.5
20260509173214 73 76 0.0 0.0 0.00 0.00 0.00 53 1013.5
20260509172714 73 36 0.0 0.0 0.00 0.00 0.00 53 1013.6
20260509172213 73 68 0.0 0.0 0.00 0.00 0.00 51 1013.6
20260509171713 74 98 0.0 0.0 0.00 0.00 0.00 49 1013.5
20260509171213 74 114 0.0 0.0 0.00 0.00 0.00 48 1013.5
20260509170712 74 68 0.0 0.0 0.00 0.00 0.00 47 1013.5
20260509170212 74 81 0.0 0.0 0.00 0.00 0.00 48 1013.4
20260509165712 74 78 0.0 0.0 0.00 0.00 0.00 47 1013.4
20260509165211 74 88 0.0 0.0 0.00 0.00 0.00 47 1013.5
20260509164711 75 74 0.0 0.0 0.00 0.00 0.00 47 1013.5
20260509164211 74 101 0.0 0.0 0.00 0.00 0.00 47 1013.6
20260509163711 74 75 0.0 0.0 0.00 0.00 0.00 46 1013.7
20260509163210 75 75 0.0 0.0 0.00 0.00 0.00 46 1013.7
20260509162710 75 91 0.0 0.0 0.00 0.00 0.00 45 1013.8
20260509162210 74 54 0.0 0.0 0.00 0.00 0.00 45 1013.8
20260509161710 75 88 0.0 0.0 0.00 0.00 0.00 45 1013.9
20260509161209 75 83 0.0 0.0 0.00 0.00 0.00 45 1014.0
20260509160709 75 100 0.0 0.0 0.00 0.00 0.00 45 1013.9
20260509160209 75 130 0.0 0.0 0.00 0.00 0.00 45 1014.0
20260509155708 75 83 0.0 0.0 0.00 0.00 0.00 45 1014.0
20260509155208 75 86 0.0 0.0 0.00 0.00 0.00 44 1013.9
20260509154708 75 78 0.0 0.0 0.00 0.00 0.00 45 1014.1
20260509154208 75 62 0.0 0.0 0.00 0.00 0.00 45 1014.1
20260509153707 75 128 0.0 0.0 0.00 0.00 0.00 45 1014.1
20260509153207 75 91 0.0 0.0 0.00 0.00 0.00 47 1014.1
20260509152707 75 103 0.0 0.0 0.00 0.00 0.00 47 1014.1
20260509152206 75 135 0.0 0.0 0.00 0.00 0.00 47 1014.1
20260509151706 75 87 0.0 0.0 0.00 0.00 0.00 47 1014.2
20260509151206 76 87 0.0 0.0 0.00 0.00 0.00 47 1014.2
20260509150705 75 112 0.0 0.0 0.00 0.00 0.00 47 1014.3
20260509150205 75 70 0.0 0.0 0.00 0.00 0.00 47 1014.3
20260509145705 75 71 0.0 0.0 0.00 0.00 0.00 46 1014.3
20260509145205 75 97 0.0 0.0 0.00 0.00 0.00 47 1014.3
20260509144704 75 24 0.0 0.0 0.00 0.00 0.00 47 1014.4
20260509144204 75 19 0.0 0.0 0.00 0.00 0.00 48 1014.4
20260509143704 75 81 0.0 0.0 0.00 0.00 0.00 46 1014.5
20260509143203 75 106 0.0 0.0 0.00 0.00 0.00 46 1014.5
20260509142703 75 48 0.0 0.0 0.00 0.00 0.00 46 1014.5
20260509142203 74 68 0.0 0.0 0.00 0.00 0.00 45 1014.6
20260509141703 75 45 0.0 0.0 0.00 0.00 0.00 45 1014.7
20260509141202 75 70 0.0 0.0 0.00 0.00 0.00 46 1014.7
20260509140702 75 118 0.0 0.0 0.00 0.00 0.00 45 1014.7
20260509140202 75 62 0.0 0.0 0.00 0.00 0.00 45 1014.8
20260509135701 75 92 0.0 0.0 0.00 0.00 0.00 46 1014.8
20260509135201 75 83 0.0 0.0 0.00 0.00 0.00 46 1014.9
20260509134701 75 42 0.0 0.0 0.00 0.00 0.00 47 1014.9
20260509134201 75 40 0.0 0.0 0.00 0.00 0.00 46 1014.9
20260509133700 75 41 0.0 0.0 0.00 0.00 0.00 46 1015.1
20260509133200 74 49 0.0 0.0 0.00 0.00 0.00 47 1015.1
20260509132700 74 143 0.0 0.0 0.00 0.00 0.00 47 1015.2
20260509132159 75 50 0.0 0.0 0.00 0.00 0.00 46 1015.2
20260509131659 75 128 0.0 0.0 0.00 0.00 0.00 45 1015.1
20260509131159 75 68 0.0 0.0 0.00 0.00 0.00 44 1015.2
20260509130659 75 70 0.0 0.0 0.00 0.00 0.00 45 1015.3
20260509130158 74 95 0.0 0.0 0.00 0.00 0.00 44 1015.3
20260509125658 75 86 0.0 0.0 0.00 0.00 0.00 44 1015.4
20260509125158 74 106 0.0 0.0 0.00 0.00 0.00 45 1015.5
20260509124657 74 48 0.0 0.0 0.00 0.00 0.00 46 1015.5
20260509124157 74 39 0.0 0.0 0.00 0.00 0.00 45 1015.5
20260509123657 74 81 0.0 0.0 0.00 0.00 0.00 45 1015.6
20260509123157 74 87 0.0 0.0 0.00 0.00 0.00 46 1015.6
20260509122656 74 101 0.0 0.0 0.00 0.00 0.00 48 1015.7
20260509122156 74 78 0.0 0.0 0.00 0.00 0.00 45 1015.7
20260509121656 74 69 0.0 0.0 0.00 0.00 0.00 45 1015.7
20260509121155 74 42 0.0 0.0 0.00 0.00 0.00 47 1015.8
20260509120655 73 14 0.0 0.0 0.00 0.00 0.00 48 1015.9
20260509120155 73 79 0.0 0.0 0.00 0.00 0.00 48 1015.9
20260509115655 73 90 0.0 0.0 0.00 0.00 0.00 49 1015.9
20260509115154 73 18 0.0 0.0 0.00 0.00 0.00 50 1016.0
20260509114654 73 103 0.0 0.0 0.00 0.00 0.00 50 1016.0
20260509114154 73 100 0.0 0.0 0.00 0.00 0.00 51 1016.0
20260509113653 73 60 0.0 0.0 0.00 0.00 0.00 51 1016.0
20260509113153 74 73 0.0 0.0 0.00 0.00 0.00 50 1016.0
20260509112653 74 4 0.0 0.0 0.00 0.00 0.00 51 1016.0
20260509112153 73 12 0.0 0.0 0.00 0.00 0.00 53 1016.0
20260509111652 73 119 0.0 0.0 0.00 0.00 0.00 51 1016.0
20260509111152 74 41 0.0 0.0 0.00 0.00 0.00 51 1016.1
20260509110652 73 126 0.0 0.0 0.00 0.00 0.00 50 1016.1
20260509110151 73 125 0.0 0.0 0.00 0.00 0.00 48 1016.2
20260509105651 73 55 0.0 0.0 0.00 0.00 0.00 51 1016.3
20260509105151 73 129 0.0 0.0 0.00 0.00 0.00 51 1016.4
20260509104651 73 39 0.0 0.0 0.00 0.00 0.00 53 1016.4
20260509104150 73 41 0.0 0.0 0.00 0.00 0.00 52 1016.4
20260509103650 73 70 0.0 0.0 0.00 0.00 0.00 53 1016.4
20260509103150 72 4 0.0 0.0 0.00 0.00 0.00 52 1016.5
20260509102649 72 331 0.0 0.0 0.00 0.00 0.00 53 1016.6
20260509102149 72 350 0.0 0.0 0.00 0.00 0.00 53 1016.6
20260509101649 72 323 0.0 0.0 0.00 0.00 0.00 53 1016.6
20260509101148 72 336 0.0 0.0 0.00 0.00 0.00 52 1016.7
20260509100648 72 29 0.0 0.0 0.00 0.00 0.00 53 1016.7
20260509100148 72 58 0.0 0.0 0.00 0.00 0.00 52 1016.7
20260509095648 72 42 0.0 0.0 0.00 0.00 0.00 51 1016.7
20260509095147 72 179 0.0 0.0 0.00 0.00 0.00 50 1016.7
20260509094647 72 118 0.0 0.0 0.00 0.00 0.00 51 1016.7
20260509094147 72 34 0.0 0.0 0.00 0.00 0.00 53 1016.8
20260509093647 72 34 0.0 0.0 0.00 0.00 0.00 52 1016.8
20260509093146 72 89 0.0 0.0 0.00 0.00 0.00 53 1016.9
20260509092646 71 4 0.0 0.0 0.00 0.00 0.00 53 1016.8
20260509092146 71 4 0.0 0.0 0.00 0.00 0.00 53 1016.9
20260509091645 71 4 0.0 0.0 0.00 0.00 0.00 52 1016.9
20260509091145 71 71 0.0 0.0 0.00 0.00 0.00 50 1016.8
20260509090645 71 60 0.0 0.0 0.00 0.00 0.00 50 1016.8
20260509090144 71 335 0.0 0.0 0.00 0.00 0.00 51 1016.8
20260509085644 70 335 0.0 0.0 0.00 0.00 0.00 51 1016.9
20260509085144 70 335 0.0 0.0 0.00 0.00 0.00 50 1016.9
20260509084644 71 318 0.0 0.0 0.00 0.00 0.00 51 1017.0
20260509084143 70 317 0.0 0.0 0.00 0.00 0.00 51 1017.0
20260509083643 70 317 0.0 0.0 0.00 0.00 0.00 52 1017.1
20260509083143 69 316 0.0 0.0 0.00 0.00 0.00 52 1017.1
20260509082642 69 316 0.0 0.0 0.00 0.00 0.00 52 1017.0
20260509082142 69 295 0.0 0.0 0.00 0.00 0.00 52 1017.1
20260509081642 68 294 0.0 0.0 0.00 0.00 0.00 54 1017.1
20260509081142 68 293 0.0 0.0 0.00 0.00 0.00 55 1017.1
20260509080641 68 286 0.0 0.0 0.00 0.00 0.00 54 1017.1
20260509080141 68 275 0.0 0.0 0.00 0.00 0.00 54 1017.2
20260509075641 69 275 0.0 0.0 0.00 0.00 0.00 54 1017.2
20260509075140 69 269 0.0 0.0 0.00 0.00 0.00 53 1017.2
20260509074640 69 268 0.0 0.0 0.00 0.00 0.00 54 1017.3
20260509074140 69 266 0.0 0.0 0.00 0.00 0.00 54 1017.3
20260509073640 69 266 0.0 0.0 0.00 0.00 0.00 54 1017.4
20260509073139 69 220 0.0 0.0 0.00 0.00 0.00 54 1017.4
20260509072639 68 216 0.0 0.0 0.00 0.00 0.00 54 1017.4
20260509072139 68 216 0.0 0.0 0.00 0.00 0.00 55 1017.3
20260509071638 68 216 0.0 0.0 0.00 0.00 0.00 57 1017.4
20260509071138 67 216 0.0 0.0 0.00 0.00 0.00 58 1017.4
20260509070638 67 216 0.0 0.0 0.00 0.00 0.00 57 1017.4
20260509070138 67 216 0.0 0.0 0.00 0.00 0.00 58 1017.4
20260509065637 67 216 0.0 0.0 0.00 0.00 0.00 57 1017.4
20260509065137 66 216 0.0 0.0 0.00 0.00 0.00 59 1017.3
20260509064637 66 216 0.0 0.0 0.00 0.00 0.00 59 1017.3
20260509064136 65 216 0.0 0.0 0.00 0.00 0.00 61 1017.3
20260509063636 65 215 0.0 0.0 0.00 0.00 0.00 62 1017.3
20260509063136 64 216 0.0 0.0 0.00 0.00 0.00 63 1017.3
20260509062636 63 216 0.0 0.0 0.00 0.00 0.00 63 1017.3
20260509062135 63 216 0.0 0.0 0.00 0.00 0.00 63 1017.3
20260509061635 62 216 0.0 0.0 0.00 0.00 0.00 64 1017.3
20260509061135 62 216 0.0 0.0 0.00 0.00 0.00 65 1017.2
20260509060634 62 215 0.0 0.0 0.00 0.00 0.00 66 1017.2
20260509060134 61 215 0.0 0.0 0.00 0.00 0.00 67 1017.2
20260509055634 60 212 0.0 0.0 0.00 0.00 0.00 67 1017.2
20260509055134 60 214 0.0 0.0 0.00 0.00 0.00 67 1017.2
20260509054633 59 216 0.0 0.0 0.00 0.00 0.00 68 1017.2
20260509054133 59 233 0.0 0.0 0.00 0.00 0.00 69 1017.3
20260509053633 59 222 0.0 0.0 0.00 0.00 0.00 68 1017.3
20260509053133 59 204 0.0 0.0 0.00 0.00 0.00 68 1017.2
20260509052632 58 197 0.0 0.0 0.00 0.00 0.00 68 1017.2
20260509052132 59 279 0.0 0.0 0.00 0.00 0.00 66 1017.1
20260509051632 59 193 0.0 0.0 0.00 0.00 0.00 67 1017.0
20260509051131 59 220 0.0 0.0 0.00 0.00 0.00 69 1016.9
20260509050631 59 220 0.0 0.0 0.00 0.00 0.00 70 1016.8
20260509050131 58 220 0.0 0.0 0.00 0.00 0.00 70 1016.7
20260509045630 57 220 0.0 0.0 0.00 0.00 0.00 70 1016.7
20260509045130 57 219 0.0 0.0 0.00 0.00 0.00 71 1016.6
20260509044630 57 211 0.0 0.0 0.00 0.00 0.00 71 1016.6
20260509044130 57 220 0.0 0.0 0.00 0.00 0.00 71 1016.6
20260509043629 57 218 0.0 0.0 0.00 0.00 0.00 72 1016.6
20260509043129 56 228 0.0 0.0 0.00 0.00 0.00 72 1016.6
20260509042629 56 212 0.0 0.0 0.00 0.00 0.00 72 1016.5
20260509042128 56 199 0.0 0.0 0.00 0.00 0.00 72 1016.5
20260509041628 56 220 0.0 0.0 0.00 0.00 0.00 72 1016.5
20260509041128 56 236 0.0 0.0 0.00 0.00 0.00 72 1016.6
20260509040628 56 222 0.0 0.0 0.00 0.00 0.00 73 1016.5
20260509040127 56 178 0.0 0.0 0.00 0.00 0.00 74 1016.5
20260509035627 56 213 0.0 0.0 0.00 0.00 0.00 74 1016.4
20260509035127 56 210 0.0 0.0 0.00 0.00 0.00 74 1016.4
20260509034626 56 228 0.0 0.0 0.00 0.00 0.00 74 1016.4
20260509034126 55 261 0.0 0.0 0.00 0.00 0.00 75 1016.4
20260509033626 55 214 0.0 0.0 0.00 0.00 0.00 74 1016.4
20260509033125 55 214 0.0 0.0 0.00 0.00 0.00 74 1016.4
20260509032625 56 212 0.0 0.0 0.00 0.00 0.00 74 1016.4
20260509032125 56 222 0.0 0.0 0.00 0.00 0.00 73 1016.3
20260509031625 56 203 0.0 0.0 0.00 0.00 0.00 73 1016.3
20260509031124 56 237 0.0 0.0 0.00 0.00 0.00 73 1016.3
20260509030624 57 222 0.0 0.0 0.00 0.00 0.00 74 1016.2
20260509030124 57 222 0.0 0.0 0.00 0.00 0.00 73 1016.2
20260509025623 57 222 0.0 0.0 0.00 0.00 0.00 73 1016.1
20260509025123 57 222 0.0 0.0 0.00 0.00 0.00 73 1016.1
20260509024623 57 222 0.0 0.0 0.00 0.00 0.00 73 1016.2
20260509024123 56 226 0.0 0.0 0.00 0.00 0.00 73 1016.2
20260509023622 56 216 0.0 0.0 0.00 0.00 0.00 74 1016.3
20260509023122 56 220 0.0 0.0 0.00 0.00 0.00 74 1016.3
20260509022622 56 212 0.0 0.0 0.00 0.00 0.00 73 1016.4
20260509022121 57 219 0.0 0.0 0.00 0.00 0.00 73 1016.4
20260509021621 57 206 0.0 0.0 0.00 0.00 0.00 72 1016.5
20260509021121 57 231 0.0 0.0 0.00 0.00 0.00 72 1016.4
20260509020621 57 224 0.0 0.0 0.00 0.00 0.00 73 1016.4
20260509020120 57 220 0.0 0.0 0.00 0.00 0.00 73 1016.4
20260509015620 57 226 0.0 0.0 0.00 0.00 0.00 73 1016.3
20260509015120 57 224 0.0 0.0 0.00 0.00 0.00 73 1016.3
20260509014619 57 231 0.0 0.0 0.00 0.00 0.00 73 1016.3
20260509014119 57 242 0.0 0.0 0.00 0.00 0.00 73 1016.3
20260509013619 57 220 0.0 0.0 0.00 0.00 0.00 73 1016.3
20260509013119 57 213 0.0 0.0 0.00 0.00 0.00 73 1016.3
20260509012618 57 209 0.0 0.0 0.00 0.00 0.00 73 1016.3
20260509012118 57 206 0.0 0.0 0.00 0.00 0.00 74 1016.3
20260509011618 57 214 0.0 0.0 0.00 0.00 0.00 74 1016.3
20260509011117 57 201 0.0 0.0 0.00 0.00 0.00 74 1016.3
20260509010617 57 223 0.0 0.0 0.00 0.00 0.00 74 1016.3
20260509010117 57 209 0.0 0.0 0.00 0.00 0.00 74 1016.3
20260509005617 57 216 0.0 0.0 0.00 0.00 0.00 73 1016.2
20260509005117 57 217 0.0 0.0 0.00 0.00 0.00 74 1016.2
20260509004616 57 224 0.0 0.0 0.00 0.00 0.00 74 1016.2
20260509004116 58 218 0.0 0.0 0.00 0.00 0.00 74 1016.2
20260509003615 58 216 0.0 0.0 0.00 0.00 0.00 74 1016.2
20260509003115 58 216 0.0 0.0 0.00 0.00 0.00 74 1016.2
20260509002615 58 222 0.0 0.0 0.00 0.00 0.00 74 1016.1
20260509002115 58 212 0.0 0.0 0.00 0.00 0.00 74 1016.2
20260509001712 58 212 0.0 0.0 0.00 0.00 0.00 74 1016.1
20260509001614 58 212 0.0 0.0 0.00 0.00 0.00 74 1016.1
20260509001114 58 211 0.0 0.0 0.00 0.00 0.00 74 1016.1
20260509000614 58 213 0.0 0.0 0.00 0.00 0.00 74 1016.1
20260509000150 58 212 0.0 0.0 0.00 0.00 0.00 74 1016.1
20260509000113 58 212 0.0 0.0 0.00 0.00 0.00 74 1016.1
20260508235613 58 213 0.0 0.0 0.00 0.00 0.00 74 1016.0
20260508235113 58 212 0.0 0.0 0.00 0.00 0.00 74 1016.1
20260508234613 58 212 0.0 0.0 0.00 0.00 0.00 74 1016.1
20260508234112 58 212 0.0 0.0 0.00 0.00 0.00 74 1016.1
20260508233612 58 207 0.0 0.0 0.00 0.00 0.00 74 1016.1
20260508233112 58 208 0.0 0.0 0.00 0.00 0.00 74 1016.1
20260508232611 58 210 0.0 0.0 0.00 0.00 0.00 73 1016.1
20260508232111 59 221 0.0 0.0 0.00 0.00 0.00 73 1016.1
20260508231611 59 216 0.0 0.0 0.00 0.00 0.00 73 1016.1
20260508231111 59 213 0.0 0.0 0.00 0.00 0.00 74 1016.1
20260508230610 59 212 0.0 0.0 0.00 0.00 0.00 74 1016.1
20260508230110 59 212 0.0 0.0 0.00 0.00 0.00 74 1016.1
20260508225610 59 212 0.0 0.0 0.00 0.00 0.00 74 1016.1
20260508225109 59 210 0.0 0.0 0.00 0.00 0.00 75 1016.1
20260508224609 58 209 0.0 0.0 0.00 0.00 0.00 76 1016.1
20260508224109 58 210 0.0 0.0 0.00 0.00 0.00 76 1016.1
20260508223609 58 208 0.0 0.0 0.00 0.00 0.00 77 1016.1
20260508223108 58 208 0.0 0.0 0.00 0.00 0.00 78 1016.1
20260508222608 58 166 0.0 0.0 0.00 0.00 0.00 78 1016.1
20260508222108 58 166 0.0 0.0 0.00 0.00 0.00 79 1016.2
20260508221607 58 129 0.0 0.0 0.00 0.00 0.00 79 1016.2
20260508221107 58 129 0.0 0.0 0.00 0.00 0.00 79 1016.1
20260508220607 58 129 0.0 0.0 0.00 0.00 0.00 79 1016.1
20260508220201 58 129 0.0 0.0 0.00 0.00 0.00 80 1016.1
20260508220106 58 129 0.0 0.0 0.00 0.00 0.00 80 1016.1
20260508215606 58 129 0.0 0.0 0.00 0.00 0.00 80 1016.1
20260508215106 58 129 0.0 0.0 0.00 0.00 0.00 81 1016.0
20260508214606 58 129 0.0 0.0 0.00 0.00 0.00 81 1016.0
20260508214105 58 125 0.0 0.0 0.00 0.00 0.00 82 1016.0
20260508213605 57 125 0.0 0.0 0.00 0.00 0.00 82 1016.0
20260508213105 57 125 0.0 0.0 0.00 0.00 0.00 83 1016.0
20260508212604 57 125 0.0 0.0 0.00 0.00 0.00 83 1015.8
20260508212104 57 125 0.0 0.0 0.00 0.00 0.00 83 1015.8
20260508211604 57 125 0.0 0.0 0.00 0.00 0.00 83 1015.9
20260508211104 57 124 0.0 0.0 0.00 0.00 0.00 83 1015.8
20260508210603 57 125 0.0 0.0 0.00 0.00 0.00 83 1015.8
20260508210103 58 125 0.0 0.0 0.00 0.00 0.00 83 1015.8
20260508205603 57 125 0.0 0.0 0.00 0.00 0.00 83 1015.9
20260508205102 57 125 0.0 0.0 0.00 0.00 0.00 83 1015.9
20260508204639 58 125 0.0 0.0 0.00 0.00 0.00 83 1015.9
20260508204602 58 125 0.0 0.0 0.00 0.00 0.00 83 1015.9
20260508204102 58 124 0.0 0.0 0.00 0.00 0.00 83 1015.9
20260508203602 58 125 0.0 0.0 0.00 0.00 0.00 82 1015.9
20260508203101 58 124 0.0 0.0 0.00 0.00 0.00 82 1016.0
20260508202601 58 125 0.0 0.0 0.00 0.00 0.00 82 1016.0
20260508202101 59 125 0.0 0.0 0.00 0.00 0.00 82 1016.0
20260508201600 59 125 0.0 0.0 0.00 0.00 0.00 82 1016.0
20260508201100 59 125 0.0 0.0 0.00 0.00 0.00 82 1015.9
20260508200600 59 125 0.0 0.0 0.00 0.00 0.00 82 1015.8
20260508200100 59 125 0.0 0.0 0.00 0.00 0.00 81 1015.7
20260508195559 60 125 0.0 0.0 0.00 0.00 0.00 81 1015.7
20260508195059 60 124 0.0 0.0 0.00 0.00 0.00 81 1015.7
20260508194559 60 124 0.0 0.0 0.00 0.00 0.00 80 1015.7
20260508194058 61 125 0.0 0.0 0.00 0.00 0.00 80 1015.7
20260508193558 61 125 0.0 0.0 0.00 0.00 0.00 80 1015.6
20260508193058 61 125 0.0 0.0 0.00 0.00 0.00 80 1015.5
20260508192558 62 125 0.0 0.0 0.00 0.00 0.00 79 1015.5
20260508192057 62 125 0.0 0.0 0.00 0.00 0.00 78 1015.4
20260508191557 63 125 0.0 0.0 0.00 0.00 0.00 78 1015.3
20260508191057 63 124 0.0 0.0 0.00 0.00 0.00 76 1015.2
20260508190556 64 125 0.0 0.0 0.00 0.00 0.00 76 1015.2
20260508190056 64 125 0.0 0.0 0.00 0.00 0.00 75 1015.1
20260508185556 64 125 0.0 0.0 0.00 0.00 0.00 74 1015.0
20260508185056 65 125 0.0 0.0 0.00 0.00 0.00 74 1014.9
20260508184555 65 124 0.0 0.0 0.00 0.00 0.00 73 1014.8
20260508184055 65 125 0.0 0.0 0.00 0.00 0.00 72 1014.7
20260508183555 65 125 0.0 0.0 0.00 0.00 0.00 71 1014.8
20260508183054 66 125 0.0 0.0 0.00 0.00 0.00 70 1014.7